Date,TemperatureHighF,TemperatureAvgF,TemperatureLowF,DewpointHighF,DewpointAvgF,DewpointLowF,HumidityHigh,HumidityAvg,HumidityLow,PressureMaxIn,PressureMinIn,WindSpeedMaxMPH,WindSpeedAvgMPH,GustSpeedMaxMPH,PrecipitationSumIn
2013-1-1,11.0,2.9,-5.0,7.0,-2.0,-8.0,88,80,60,0.00,40.00,0,0,0,0.00
2013-1-2,19.0,15.5,12.0,13.0,10.4,9.0,93,80,67,0.00,40.00,0,0,0,0.00
2013-1-3,19.0,15.0,8.0,18.0,12.6,5.0,97,91,88,0.00,40.00,0,0,0,0.00
2013-1-4,27.0,18.3,7.0,16.0,12.6,5.0,94,79,60,0.00,40.00,0,0,1,0.00
2013-1-5,26.0,16.0,3.0,18.0,11.5,1.0,94,83,67,0.00,40.00,0,0,0,0.00
2013-1-6,25.0,19.5,9.0,22.0,16.4,8.0,96,88,74,0.00,40.00,0,0,0,0.00
2013-1-7,33.0,21.5,9.0,22.0,15.7,8.0,96,80,61,0.00,40.00,0,0,1,0.00
2013-1-8,34.0,25.8,9.0,30.0,22.8,9.0,98,89,75,0.00,40.00,0,0,0,0.00
2013-1-9,34.0,29.9,18.0,30.0,23.8,15.0,91,78,61,0.00,40.00,0,0,1,0.00
2013-1-10,35.0,25.6,18.0,33.0,20.4,15.0,98,82,47,0.00,40.00,0,0,0,0.00
2013-1-11,41.0,35.6,33.0,40.0,35.3,33.0,98,98,98,0.00,40.00,0,0,0,0.00
2013-1-12,41.0,25.5,11.0,41.0,20.3,3.0,98,80,68,0.00,40.00,0,-11,1,0.00
2013-1-13,11.0,9.6,3.0,6.0,3.1,-1.0,81,74,67,0.00,40.00,0,-9,0,0.00
2013-1-14,12.0,7.0,1.0,6.0,2.2,-2.0,85,80,71,0.00,40.00,0,0,0,0.00
2013-1-15,27.0,15.2,3.0,12.0,7.6,0.0,88,73,48,0.00,40.00,0,0,0,0.00
2013-1-16,30.0,23.1,14.0,26.0,15.8,0.0,91,74,47,0.00,40.00,0,0,1,0.00
2013-1-17,14.0,8.8,3.0,3.0,-0.9,-6.0,82,64,54,0.00,40.00,0,0,0,0.00
2013-1-18,38.0,21.9,3.0,30.0,17.1,-1.0,90,82,62,0.00,40.00,0,0,0,0.00
2013-1-19,37.0,26.0,4.0,32.0,21.0,-5.0,96,81,59,0.00,40.00,1,0,2,0.00
2013-1-20,6.0,1.6,-3.0,-5.0,-7.4,-9.0,74,65,52,0.00,40.00,0,0,1,0.00
2013-1-21,0.0,-8.0,-12.0,-6.0,-15.7,-19.0,77,68,59,0.00,40.00,0,0,0,0.00
2013-1-22,-3.0,-10.3,-15.0,-13.0,-17.0,-20.0,77,72,62,0.00,40.00,0,0,0,0.00
2013-1-23,11.0,1.8,-7.0,4.0,-4.8,-13.0,79,73,66,0.00,40.00,0,0,1,0.00
2013-1-24,-3.0,-6.6,-8.0,-9.0,-12.3,-13.0,77,76,73,0.00,40.00,0,0,0,0.00
2013-1-30,21.0,14.3,9.0,20.0,11.3,5.0,94,87,81,0.00,40.00,0,0,1,0.00
2013-1-31,7.0,3.6,-1.0,0.0,-3.4,-6.0,82,73,62,0.00,40.00,0,0,0,0.00
2013-2-1,0.0,-5.8,-14.0,-6.0,-13.6,-19.0,78,69,53,0.00,40.00,0,0,0,0.00
2013-2-2,9.0,2.0,-2.0,-4.0,-6.4,-10.0,80,68,47,0.00,40.00,0,0,0,0.00
2013-2-3,12.0,7.0,1.0,3.0,-0.5,-4.0,87,72,53,0.00,40.00,0,0,1,0.00
2013-2-4,13.0,6.1,0.0,0.0,-5.1,-8.0,76,61,39,0.00,40.00,0,0,0,0.00
2013-2-5,20.0,12.4,-5.0,19.0,7.9,-7.0,96,82,57,0.00,40.00,0,0,0,0.00
2013-2-6,21.0,6.6,-10.0,20.0,4.2,-13.0,96,90,86,0.00,40.00,0,0,0,0.00
2013-2-7,25.0,23.2,21.0,24.0,22.0,19.0,98,96,89,0.00,40.00,0,0,0,0.00
2013-2-8,23.0,14.1,3.0,17.0,6.8,-1.0,89,74,45,0.00,40.00,0,0,0,0.00
2013-2-9,24.0,15.5,4.0,23.0,13.7,0.0,96,93,86,0.00,40.00,0,0,0,0.00
2013-2-10,36.0,28.7,23.0,35.0,28.0,22.0,98,98,96,0.00,40.00,0,0,1,0.00
2013-2-11,34.0,27.8,23.0,33.0,25.7,18.0,98,92,80,0.00,40.00,0,0,1,0.00
2013-2-12,28.0,21.6,16.0,20.0,16.7,13.0,93,82,67,0.00,40.00,0,0,0,0.00
2013-2-13,33.0,26.7,21.0,29.0,23.5,20.0,97,88,66,0.00,40.00,0,0,0,0.00
2013-2-14,29.0,25.5,13.0,29.0,21.6,7.0,98,85,58,0.00,40.00,0,0,0,0.00
2013-2-15,16.0,8.9,3.0,5.0,0.5,-4.0,85,69,51,0.00,40.00,0,0,0,0.00
2013-2-16,14.0,2.1,-12.0,1.0,-6.8,-99.9,86,69,41,0.00,40.00,0,0,0,0.00
2013-2-17,20.0,3.5,-18.0,10.0,-5.9,-22.0,84,67,44,0.00,40.00,0,0,0,0.00
2013-2-18,36.0,26.7,20.0,30.0,22.0,13.0,98,83,64,0.00,40.00,0,0,0,0.00
2013-2-19,22.0,8.7,2.0,22.0,1.4,-8.0,98,73,55,0.00,40.00,0,0,1,0.00
2013-2-20,20.0,9.3,-2.0,6.0,0.9,-6.0,85,70,46,0.00,40.00,0,0,0,0.00
2013-2-21,22.0,10.4,-2.0,19.0,4.2,-5.0,93,76,60,0.00,40.00,0,0,1,0.00
2013-2-22,28.0,22.9,17.0,26.0,21.5,17.0,98,94,87,0.00,40.00,0,0,0,0.00
2013-2-23,27.0,23.3,20.0,22.0,20.9,19.0,98,91,77,0.00,40.00,0,0,0,0.00
2013-2-24,33.0,26.1,16.0,23.0,20.4,14.0,95,80,56,0.00,40.00,0,0,0,0.00
2013-2-25,32.0,24.0,13.0,25.0,20.2,11.0,95,86,68,0.00,40.00,0,0,0,0.00
2013-2-26,34.0,29.9,25.0,26.0,23.9,22.0,90,78,69,0.00,40.00,0,0,0,0.00
2013-2-27,32.0,29.4,28.0,30.0,25.9,22.0,98,87,77,0.00,40.00,0,0,0,0.00
2013-2-28,30.0,27.0,21.0,27.0,20.3,13.0,91,76,57,0.00,40.00,0,0,0,0.00
2013-3-1,28.0,21.5,16.0,14.0,10.2,2.0,75,62,46,0.00,40.00,0,0,0,0.00
2013-3-2,27.0,13.8,-2.0,10.0,3.4,-5.0,91,66,33,0.00,40.00,0,0,0,0.00
2013-3-3,29.0,11.7,-3.0,6.0,-2.4,-7.0,88,58,25,0.00,40.00,0,0,0,0.00
2013-3-4,28.0,18.6,2.0,15.0,8.4,-6.0,83,65,45,0.00,40.00,0,0,0,0.00
2013-3-5,27.0,24.1,22.0,24.0,18.4,12.0,93,79,59,0.00,40.00,0,0,0,0.00
2013-3-6,29.0,23.1,15.0,20.0,16.9,9.0,92,78,58,0.00,40.00,0,0,0,0.00
2013-3-7,30.0,16.0,-1.0,14.0,7.5,-4.0,91,72,41,0.00,40.00,0,0,0,0.00
2013-3-8,37.0,26.1,13.0,23.0,18.7,12.0,96,75,51,0.00,40.00,0,0,0,0.00
2013-3-9,34.0,31.3,27.0,33.0,29.0,24.0,98,91,83,0.00,40.00,0,0,0,0.00
2013-3-10,36.0,33.3,29.0,34.0,32.0,28.0,98,95,83,0.00,40.00,0,0,1,0.00
2013-3-11,28.0,26.7,23.0,27.0,24.9,19.0,98,92,82,0.00,40.00,0,0,0,0.00
2013-3-12,27.0,22.4,17.0,19.0,16.3,10.0,89,78,47,0.00,40.00,0,0,1,0.00
2013-3-13,28.0,19.7,11.0,13.0,4.9,-2.0,91,56,27,0.00,40.00,0,0,1,0.00
2013-3-14,33.0,20.3,6.0,25.0,12.3,2.0,93,72,47,0.00,40.00,0,0,0,0.00
2013-3-15,34.0,28.6,24.0,29.0,24.3,20.0,97,85,57,0.00,40.00,0,0,0,0.00
2013-3-16,26.0,19.7,14.0,25.0,11.5,3.0,98,72,48,0.00,40.00,0,0,1,0.00
2013-3-17,23.0,13.4,3.0,10.0,2.5,-4.0,78,62,47,0.00,40.00,0,0,0,0.00
2013-3-18,29.0,20.2,13.0,26.0,17.8,9.0,95,91,78,0.00,40.00,0,0,2,0.00
2013-3-19,21.0,14.6,9.0,11.0,5.8,0.0,90,70,49,0.00,40.00,0,0,1,0.00
2013-3-20,16.0,8.4,0.0,1.0,-3.1,-8.0,71,59,52,0.00,40.00,0,0,1,0.00
2013-3-21,24.0,12.3,0.0,8.0,3.2,-6.0,88,68,46,0.00,40.00,0,0,0,0.00
2013-3-22,33.0,18.6,1.0,11.0,5.8,-2.0,89,61,35,0.00,40.00,0,0,0,0.00
2013-3-23,35.0,23.6,9.0,20.0,13.3,5.0,93,67,39,0.00,40.00,0,0,0,0.00
2013-3-24,31.0,27.7,24.0,22.0,20.1,19.0,85,73,61,0.00,40.00,0,0,0,0.00
2013-3-25,34.0,26.0,16.0,22.0,17.6,15.0,95,72,49,0.00,40.00,0,0,0,0.00
2013-3-26,35.0,29.3,22.0,24.0,18.6,16.0,89,66,44,0.00,40.00,0,0,0,0.00
2013-3-27,38.0,32.1,27.0,22.0,17.2,12.0,71,55,36,0.00,40.00,0,0,0,0.00
2013-3-28,41.0,29.2,14.0,17.0,13.6,11.0,89,57,32,0.00,40.00,0,0,0,0.00
2013-3-29,48.0,32.6,17.0,22.0,15.5,14.0,88,54,27,0.00,40.00,0,0,0,0.00
2013-3-30,38.0,35.6,32.0,37.0,30.0,-99.9,98,85,60,0.00,40.00,0,0,0,0.00
2013-3-31,36.0,31.2,26.0,32.0,22.6,8.0,98,74,36,0.00,40.00,0,0,1,0.00
2013-4-1,29.0,23.3,17.0,10.0,6.4,4.0,60,48,35,0.00,40.00,0,0,1,0.00
2013-4-2,32.0,23.2,15.0,13.0,9.2,5.0,75,56,33,0.00,40.00,0,0,1,0.00
2013-4-3,39.0,26.3,10.0,16.0,8.8,4.0,82,51,28,0.00,40.00,0,0,0,0.00
2013-4-4,45.0,36.9,30.0,30.0,22.1,17.0,69,55,39,0.00,40.00,0,0,1,0.00
2013-4-5,37.0,31.4,23.0,29.0,16.6,13.0,96,56,38,0.00,40.00,0,0,0,0.00
2013-4-6,42.0,34.4,29.0,37.0,29.8,25.0,98,84,58,0.00,40.00,0,0,1,0.00
2013-4-7,40.0,34.5,32.0,33.0,29.5,28.0,98,83,62,0.00,40.00,0,0,0,0.00
2013-4-8,39.0,35.6,33.0,36.0,33.5,32.0,97,93,85,0.00,40.00,0,0,0,0.00
2013-4-9,37.0,35.3,33.0,36.0,31.7,20.0,98,88,56,0.00,40.00,0,0,0,0.00
2013-4-10,39.0,33.5,27.0,27.0,21.0,12.0,97,63,35,0.00,40.00,0,0,0,0.00
2013-4-11,34.0,31.2,27.0,31.0,23.5,13.0,97,76,43,0.00,40.00,0,0,1,0.00
2013-4-12,33.0,29.7,27.0,29.0,26.5,24.0,98,88,70,0.00,40.00,0,0,0,0.00
2013-4-13,33.0,28.4,24.0,27.0,22.2,19.0,95,79,59,0.00,40.00,0,0,0,0.00
2013-4-14,33.0,27.8,20.0,32.0,25.5,19.0,98,92,66,0.00,40.00,0,0,0,0.00
2013-4-15,41.0,35.9,32.0,37.0,28.8,23.0,98,78,49,0.00,40.00,0,0,1,0.00
2013-4-16,42.0,35.9,33.0,29.0,27.9,26.0,86,73,55,0.00,40.00,0,0,0,0.00
2013-4-17,38.0,34.5,30.0,33.0,28.2,25.0,96,78,67,0.00,40.00,0,0,0,0.00
2013-4-18,36.0,35.0,33.0,36.0,34.4,33.0,98,98,98,0.00,40.00,0,0,0,0.00
2013-4-19,33.0,28.3,25.0,32.0,24.9,18.0,98,87,74,0.00,40.00,0,0,0,0.00
2013-4-20,37.0,28.1,20.0,19.0,12.9,5.0,88,57,26,0.00,40.00,0,0,0,0.00
2013-4-21,37.0,32.8,29.0,34.0,27.5,17.0,98,81,59,0.00,40.00,0,0,1,0.00
2013-4-22,43.0,40.9,36.0,43.0,40.2,35.0,98,98,96,0.00,40.00,0,0,0,0.00
2013-4-23,39.0,34.1,29.0,38.0,29.9,24.0,98,85,64,0.00,40.00,0,0,0,0.00
2013-4-24,47.0,35.2,26.0,32.0,23.3,17.0,96,66,34,0.00,40.00,0,0,1,0.00
2013-4-25,44.0,36.2,31.0,33.0,28.4,22.0,98,77,41,0.00,40.00,0,0,1,0.00
2013-4-26,68.0,50.0,34.0,44.0,33.4,27.0,78,57,30,0.00,40.00,0,0,1,0.00
2013-4-27,69.0,57.2,42.0,49.0,44.4,41.0,96,66,37,0.00,40.00,0,0,0,0.00
2013-4-28,71.0,58.5,41.0,45.0,41.6,38.0,96,58,30,0.00,40.00,0,0,0,0.00
2013-4-29,70.0,59.9,52.0,56.0,51.5,43.0,96,76,48,0.00,40.00,0,0,0,0.00
2013-4-30,80.0,63.8,51.0,58.0,51.0,39.0,97,68,33,0.00,40.00,0,0,1,0.00
2013-5-1,52.0,46.7,36.0,49.0,42.1,33.0,98,84,65,0.00,40.00,0,0,1,0.00
2013-5-2,36.0,32.9,30.0,33.0,31.1,28.0,98,93,88,0.00,40.00,0,0,1,0.00
2013-5-3,36.0,32.4,29.0,35.0,31.6,28.0,98,97,92,0.00,40.00,0,0,0,0.00
2013-5-4,71.0,51.2,36.0,53.0,43.8,35.0,98,79,29,0.00,40.00,0,0,0,0.00
2013-5-5,71.0,56.4,43.0,46.0,41.7,35.0,93,63,28,0.00,40.00,0,0,0,0.00
2013-5-6,73.0,59.6,41.0,46.0,37.6,30.0,96,54,21,0.00,40.00,0,0,0,0.00
2013-5-7,77.0,63.6,46.0,49.0,37.7,27.0,91,45,17,0.00,40.00,0,0,0,0.00
2013-5-8,79.0,64.8,48.0,46.0,40.2,35.0,80,44,22,0.00,40.00,0,0,0,0.00
2013-5-9,64.0,52.5,39.0,53.0,45.9,39.0,97,80,49,0.00,40.00,0,0,0,0.00
2013-5-10,62.0,46.8,36.0,39.0,28.2,-99.9,97,59,23,0.00,40.00,0,0,0,0.00
2013-5-11,51.0,43.1,36.0,40.0,28.3,-99.9,91,60,41,0.00,40.00,0,0,1,0.00
2013-5-12,50.0,40.0,32.0,32.0,20.7,14.0,82,48,27,0.00,40.00,0,0,1,0.00
2013-5-13,59.0,45.7,28.0,32.0,24.8,16.0,89,48,26,0.00,40.00,0,0,0,0.00
2013-5-14,81.0,62.9,43.0,52.0,42.7,30.0,86,51,28,0.00,40.00,0,0,1,0.00
2013-5-15,73.0,65.8,56.0,47.0,42.7,39.0,72,45,30,0.00,40.00,0,0,1,0.00
2013-5-16,78.0,59.0,48.0,52.0,17.5,-99.9,93,46,22,0.00,40.00,0,0,0,0.00
2013-5-17,60.0,51.5,49.0,52.0,39.7,-99.9,98,79,51,0.00,40.00,0,0,0,0.00
2013-5-18,73.0,60.7,50.0,63.0,55.5,49.0,98,84,66,0.00,40.00,0,0,0,0.00
2013-5-19,80.0,69.3,59.0,64.0,61.2,58.0,97,78,49,0.00,40.00,0,0,0,0.00
2013-5-20,78.0,68.7,62.0,62.0,57.8,52.0,96,71,43,0.00,40.00,0,0,1,0.00
2013-5-21,68.0,62.9,57.0,64.0,58.4,53.0,97,86,64,0.00,40.00,0,0,0,0.00
2013-5-22,58.0,54.4,49.0,57.0,53.4,48.0,97,96,86,0.00,40.00,0,0,0,0.00
2013-5-23,57.0,48.9,41.0,49.0,34.8,26.0,97,64,31,0.00,40.00,0,0,0,0.00
2013-5-24,61.0,48.6,33.0,44.0,33.1,28.0,94,59,32,0.00,40.00,0,0,0,0.00
2013-5-25,64.0,54.1,46.0,44.0,40.6,34.0,91,63,34,0.00,40.00,0,0,0,0.00
2013-5-26,63.0,54.0,43.0,42.0,38.2,35.0,90,58,35,0.00,40.00,0,0,0,0.00
2013-5-27,60.0,54.3,51.0,52.0,45.5,39.0,96,73,59,0.00,40.00,0,0,1,0.00
2013-5-28,55.0,52.6,50.0,55.0,51.9,49.0,98,98,96,0.00,40.00,0,0,0,0.00
2013-5-29,63.0,58.3,55.0,63.0,57.6,55.0,98,98,95,0.00,40.00,0,0,0,0.00
2013-5-30,78.0,68.4,61.0,70.0,65.0,60.0,97,90,71,0.00,40.00,0,0,0,0.00
2013-5-31,76.0,67.7,57.0,67.0,58.9,54.0,96,76,48,0.00,40.00,0,-42,0,0.00
2013-6-1,69.0,58.9,47.0,59.0,55.3,46.0,97,89,61,0.00,40.00,0,0,0,0.00
2013-6-2,58.0,48.3,42.0,46.0,41.0,38.0,94,78,49,0.00,40.00,0,0,0,0.00
2013-6-3,67.0,56.6,41.0,47.0,40.6,36.0,97,60,33,0.00,40.00,0,0,0,0.00
2013-6-4,57.0,53.1,51.0,53.0,47.6,36.0,97,83,45,0.00,40.00,0,0,0,0.00
2013-6-5,54.0,51.2,49.0,54.0,50.5,49.0,98,97,91,0.00,40.00,0,0,0,0.00
2013-6-6,53.0,50.6,49.0,53.0,50.1,48.0,98,98,95,0.00,40.00,0,0,0,0.00
2013-6-7,66.0,56.5,49.0,54.0,49.4,46.0,96,79,53,0.00,40.00,0,0,0,0.00
2013-6-8,66.0,57.8,52.0,55.0,51.7,47.0,97,82,54,0.00,40.00,0,0,0,0.00
2013-6-9,69.0,59.3,53.0,62.0,55.2,50.0,96,87,69,0.00,40.00,0,0,0,0.00
2013-6-10,69.0,60.4,57.0,63.0,58.7,55.0,97,95,81,0.00,40.00,0,0,0,0.00
2013-6-11,76.0,71.5,65.0,64.0,61.8,58.0,93,72,56,0.00,40.00,0,0,0,0.00
2013-6-12,69.0,64.2,60.0,64.0,49.2,-99.9,96,91,76,0.00,40.00,0,0,0,0.00
2013-6-13,74.0,63.6,55.0,59.0,47.4,-99.9,97,72,42,0.00,40.00,0,0,0,0.00
2013-6-14,74.0,69.3,58.0,58.0,49.5,44.0,85,51,39,0.00,40.00,0,0,0,0.00
2013-6-15,70.0,63.8,60.0,68.0,62.3,58.0,98,95,85,0.00,40.00,0,0,1,0.00
2013-6-16,79.0,67.4,57.0,61.0,54.7,48.0,98,69,36,0.00,40.00,0,0,1,0.00
2013-6-17,73.0,64.4,53.0,60.0,56.3,52.0,94,76,57,0.00,40.00,0,0,0,0.00
2013-6-18,70.0,60.8,51.0,58.0,48.2,40.0,95,67,35,0.00,40.00,0,0,0,0.00
2013-6-19,76.0,63.3,49.0,59.0,51.6,47.0,94,68,47,0.00,40.00,0,0,0,0.00
2013-6-20,81.0,66.6,58.0,65.0,59.1,56.0,94,79,47,0.00,40.00,0,0,0,0.00
2013-6-22,74.0,70.0,63.0,70.0,67.6,62.0,97,93,86,0.00,40.00,0,0,0,0.00
2013-6-23,81.0,72.5,64.0,71.0,65.9,63.0,97,81,55,0.00,40.00,0,0,1,0.00
2013-6-24,80.0,71.5,64.0,71.0,67.4,63.0,96,87,70,0.00,40.00,0,0,0,0.00
2013-6-25,79.0,71.3,64.0,69.0,65.4,63.0,97,83,59,0.00,40.00,0,0,0,0.00
2013-6-26,82.0,71.8,68.0,72.0,68.9,67.0,97,91,59,0.00,40.00,0,0,0,0.00
2013-6-27,82.0,72.6,65.0,69.0,62.4,56.0,97,74,42,0.00,40.00,0,0,1,0.00
2013-6-28,70.0,64.9,61.0,65.0,61.1,55.0,96,87,69,0.00,40.00,0,0,0,0.00
2013-6-29,70.0,63.0,58.0,61.0,56.3,47.0,97,81,51,0.00,40.00,0,0,0,0.00
2013-6-30,77.0,66.3,53.0,49.0,44.7,40.0,74,49,28,0.00,40.00,0,0,0,0.00
2013-7-1,81.0,68.9,55.0,57.0,39.8,-99.9,81,53,30,0.00,40.00,0,0,0,0.00
2013-7-2,75.0,65.1,53.0,57.0,50.6,46.0,94,63,36,0.00,40.00,0,0,0,0.00
2013-7-3,74.0,62.3,50.0,60.0,35.7,-99.9,96,70,30,0.00,40.00,0,0,0,0.00
2013-7-4,81.0,70.3,57.0,62.0,55.4,-99.9,97,67,39,0.00,40.00,0,0,0,0.00
2013-7-5,83.0,73.4,60.0,61.0,57.1,51.0,94,60,33,0.00,40.00,0,0,0,0.00
2013-7-6,87.0,74.0,65.0,65.0,62.1,59.0,91,69,40,0.00,40.00,0,0,0,0.00
2013-7-7,86.0,76.0,69.0,71.0,67.5,65.0,97,76,50,0.00,40.00,0,0,0,0.00
2013-7-8,85.0,72.9,67.0,72.0,68.4,64.0,98,87,54,0.00,40.00,0,0,0,0.00
2013-7-9,81.0,73.3,67.0,74.0,64.6,-99.9,98,87,59,0.00,40.00,0,0,1,0.00
2013-7-10,72.0,65.9,58.0,69.0,54.1,-99.9,96,71,47,0.00,40.00,0,0,0,0.00
2013-7-11,80.0,68.5,56.0,63.0,50.9,-99.9,97,67,34,0.00,40.00,0,0,0,0.00
2013-7-12,81.0,70.2,58.0,63.0,56.0,51.0,97,66,36,0.00,40.00,0,0,0,0.00
2013-7-13,80.0,70.8,62.0,63.0,58.7,56.0,91,68,44,0.00,40.00,0,0,0,0.00
2013-7-14,85.0,74.4,61.0,65.0,61.2,58.0,93,66,45,0.00,40.00,0,0,0,0.00
2013-7-15,85.0,75.4,64.0,73.0,67.1,62.0,97,78,48,0.00,40.00,0,0,0,0.00
2013-7-16,90.0,80.4,72.0,74.0,70.5,66.0,97,74,48,0.00,40.00,0,0,0,0.00
2013-7-17,89.0,80.9,72.0,74.0,68.7,62.0,95,69,42,0.00,40.00,0,0,0,0.00
2013-7-18,90.0,81.6,73.0,71.0,60.8,-99.9,93,67,45,0.00,40.00,0,0,1,0.00
2013-7-19,83.0,77.1,67.0,72.0,57.2,-99.9,94,67,42,0.00,40.00,0,0,1,0.00
2013-7-20,74.0,67.6,62.0,62.0,52.6,-99.9,94,65,43,0.00,40.00,0,0,0,0.00
2013-7-21,68.0,62.3,58.0,61.0,57.0,51.0,97,83,64,0.00,40.00,0,0,0,0.00
2013-7-22,83.0,69.7,60.0,69.0,63.8,60.0,98,83,57,0.00,40.00,0,0,0,0.00
2013-7-23,70.0,61.4,53.0,60.0,50.6,46.0,95,70,43,0.00,40.00,0,0,0,0.00
2013-7-24,74.0,61.4,47.0,55.0,43.7,-99.9,97,66,34,0.00,40.00,0,0,0,0.00
2013-7-25,79.0,65.5,52.0,62.0,57.2,51.0,97,78,45,0.00,40.00,0,0,1,0.00
2013-7-26,72.0,63.0,50.0,65.0,57.1,45.0,97,83,51,0.00,40.00,0,0,1,0.00
2013-7-27,55.0,49.9,45.0,50.0,46.3,44.0,97,88,66,0.00,40.00,0,0,0,0.00
2013-7-28,62.0,54.4,47.0,55.0,50.2,46.0,98,87,66,0.00,40.00,0,0,1,0.00
2013-7-29,76.0,61.3,47.0,57.0,49.6,45.0,98,71,38,0.00,40.00,0,0,0,0.00
2013-7-30,72.0,64.4,58.0,63.0,58.6,56.0,96,82,56,0.00,40.00,0,-42,0,0.00
2013-7-31,74.0,67.1,57.0,65.0,49.9,-99.9,97,80,46,0.00,40.00,0,0,0,0.00
2013-8-1,74.0,63.4,52.0,55.0,47.1,-99.9,95,68,38,0.00,40.00,0,0,0,0.00
2013-8-2,73.0,63.7,52.0,59.0,52.2,46.0,97,70,39,0.00,40.00,0,0,0,0.00
2013-8-3,72.0,62.0,50.0,53.0,48.0,44.0,96,64,37,0.00,40.00,0,0,0,0.00
2013-8-4,72.0,60.9,46.0,54.0,47.5,43.0,97,66,36,0.00,40.00,0,0,0,0.00
2013-8-5,71.0,61.5,50.0,64.0,57.5,49.0,97,88,66,0.00,40.00,0,0,0,0.00
2013-8-6,80.0,68.1,59.0,65.0,58.6,49.0,98,76,34,0.00,40.00,0,0,0,0.00
2013-8-7,71.0,62.9,57.0,62.0,58.4,56.0,98,87,59,0.00,40.00,0,0,0,0.00
2013-8-8,75.0,68.5,56.0,53.0,8.8,-99.9,92,48,30,0.00,40.00,0,0,0,0.00
2013-8-9,72.0,63.8,55.0,59.0,49.8,43.0,95,65,36,0.00,40.00,0,0,1,0.00
2013-8-10,71.0,62.9,52.0,55.0,50.8,47.0,94,67,42,0.00,40.00,0,0,0,0.00
2013-8-11,74.0,61.8,50.0,59.0,54.6,50.0,97,80,49,0.00,40.00,0,0,0,0.00
2013-8-21,87.0,74.1,62.0,70.0,66.6,62.0,98,79,50,0.00,40.00,0,0,1,0.00
2013-8-22,81.0,69.4,60.0,63.0,43.6,-99.9,98,67,31,0.00,40.00,0,0,0,0.00
2013-8-23,82.0,67.6,56.0,58.0,54.1,50.0,96,66,40,0.00,40.00,0,0,0,0.00
2013-8-24,83.0,70.4,58.0,69.0,48.7,-99.9,96,68,37,0.00,40.00,0,0,0,0.00
2013-8-25,92.0,80.2,70.0,73.0,69.2,67.0,96,71,46,0.00,40.00,0,0,1,0.00
2013-8-26,91.0,78.2,68.0,76.0,71.4,66.0,98,81,49,0.00,40.00,0,0,0,0.00
2013-8-27,88.0,79.3,74.0,77.0,73.4,70.0,97,84,57,0.00,40.00,0,0,0,0.00
2013-9-24,68.0,52.7,43.0,54.0,46.8,43.0,98,84,42,0.00,40.00,0,0,0,0.00
2013-9-25,67.0,53.9,42.0,54.0,46.0,41.0,98,79,45,0.00,40.00,0,0,0,0.00
2013-9-26,71.0,55.3,43.0,55.0,40.7,-99.9,98,79,33,0.00,40.00,0,0,0,0.00
2013-9-27,78.0,62.6,50.0,53.0,49.3,44.0,94,67,37,0.00,40.00,0,0,1,0.00
2013-9-28,72.0,58.2,51.0,64.0,53.2,50.0,98,84,52,0.00,40.00,0,0,1,0.00
2013-9-29,69.0,55.2,41.0,52.0,43.8,39.0,98,70,35,0.00,40.00,0,0,0,0.00
2013-9-30,70.0,58.1,47.0,49.0,44.1,41.0,92,63,36,0.00,40.00,0,0,1,0.00
2013-10-29,38.0,32.6,26.0,37.0,29.0,21.0,97,87,78,0.00,40.00,0,0,0,0.00
2013-10-30,50.0,43.3,38.0,49.0,42.7,37.0,98,98,97,0.00,40.00,0,0,0,0.00
2013-10-31,53.0,47.6,39.0,53.0,46.8,39.0,98,98,98,0.00,40.00,0,0,1,0.00
2013-11-1,42.0,40.4,38.0,41.0,38.9,36.0,98,94,86,0.00,40.00,0,0,1,0.00
2013-11-2,41.0,35.7,27.0,37.0,33.3,27.0,97,91,78,0.00,40.00,0,0,0,0.00
2013-11-3,45.0,35.3,27.0,35.0,30.7,27.0,98,84,55,0.00,40.00,0,0,0,0.00
2013-11-4,46.0,42.1,39.0,43.0,37.8,34.0,97,85,69,0.00,40.00,0,0,1,0.00
2013-11-6,37.0,33.7,28.0,35.0,28.9,21.0,98,84,55,0.00,40.00,0,0,0,0.00
2013-11-7,33.0,28.7,25.0,28.0,24.6,19.0,97,85,56,0.00,40.00,0,0,0,0.00
2013-11-8,38.0,31.4,25.0,35.0,28.5,25.0,98,89,70,0.00,40.00,0,0,0,0.00
2013-11-9,41.0,38.5,35.0,41.0,33.8,25.0,97,84,63,0.00,40.00,0,0,1,0.00
2013-11-10,41.0,37.0,34.0,33.0,27.0,24.0,94,67,52,0.00,40.00,0,0,1,0.00
2013-11-11,36.0,26.1,18.0,34.0,15.8,4.0,97,67,39,0.00,40.00,0,-43,0,0.00
2013-11-12,24.0,17.8,12.0,12.0,9.8,8.0,87,71,50,0.00,40.00,0,0,0,0.00
2013-12-23,19.0,8.5,-3.0,17.0,6.4,-6.0,96,91,83,0.00,40.00,0,0,0,0.00
2013-12-24,10.0,-0.8,-17.0,7.0,-3.9,-20.0,92,86,78,0.00,40.00,0,0,0,0.00
2013-12-25,15.0,11.1,7.0,14.0,8.8,4.0,94,90,85,0.00,40.00,0,0,0,0.00
2013-12-26,17.0,13.3,7.0,12.0,9.5,4.0,88,85,78,0.00,40.00,0,0,0,0.00
2013-12-27,34.0,23.3,15.0,28.0,20.6,12.0,96,89,75,0.00,40.00,0,0,0,0.00
2013-12-28,32.0,24.8,21.0,31.0,23.9,20.0,98,96,87,0.00,40.00,0,0,0,0.00
2013-12-29,30.0,10.1,-8.0,29.0,4.3,-15.0,97,78,62,0.00,40.00,0,0,1,0.00